HOT BIRD 4
1 25237U 98013A   03055.98151369  .00000074  00000-0  10000-3 0  3309
2 25237   0.0547 293.1775 0007524 338.0934 249.5459  1.00273950 18609
NOAA 15
1 25338U 98030A   03058.94183075 +.00000116 +00000-0 +68687-4 0 00239
2 25338 098.5489 080.8373 0009683 292.9536 067.0621 14.24248468249131
RESURS O1-N4
1 25394U 98043A   03058.98189216 +.00000062 +00000-0 +46040-4 0 04796
2 25394 098.6304 136.7365 0002502 085.5765 274.5700 14.23880563240877
TMSAT
1 25396U 980432 25396 098.6248 135.8740 0003787 105.6921 254.4677 14.23514048240868
TECHSAT 1B
1 25397U 98043D   03058.97994936 +.00000024 +00000-0 +29908-4 0 01464
2 25397 098.6209 134.7707 0002142 108.6861 251.4551 14.22961639240833
ASTRA 2A
1 25462U 98050A   03058.24227095  .00000000  00000-0  10000-3 0  5358
2 25462   0.0563 284.0808 0004996  69.9559 278.0076  1.00271461 16522
EUTELSAT W2
1 25491U 98056A   03058.05225223  .00000000  00000-0  10000-3 0  5828
2 25491   0.0201 271.7959 0057429 107.2037 171.6734  1.00271849 16135
HOT BIRD 5
1 25495U 98057A   03056.80000000  .00000127  00000-0  00000+0 0  5014
2 25495   0.0420 122.5750 0014253 241.1950 108.9370  1.00127617 16091
SEDSAT 1
1 25509U 98061B   03059.44320181  .00000403  00000-0  70803-4 0  7903
2 25509  31.4310  97.3969 0357196  29.0749 332.9274 14.27445469226725
PAN SAT
1 25520U 98064B   03059.51370747  .00001657  00000-0  78843-4 0  6420
2 25520  28.4640 157.6235 0005638 101.0865 259.0359 15.13923443239093
ISS (ZARYA)
1 25544U 98067A   03059.52138226  .00024535  00000-0  31532-3 0  7350
2 25544  51.6333 206.0247 0012027 257.3044 185.2757 15.58868399244053
ORSTED
1 25635U 99008B   03059.01580974  .00000522  00000-0  14053-3 0  8420
2 25635  96.4528  42.9886 0144227 299.6474  59.0421 14.44858228211309
SUNSAT
1 25636U 99008C   03059.56395600  .00000311  00000-0  89876-4 0  6678
2 25636  96.4553  42.0424 0148146 304.4324  54.2943 14.42964474211259
UOSAT 12
1 25693U 99021A   03059.23640848  .00000217  00000-0  50876-4 0  7457
2 25693  64.5606 341.1943 0021224 315.6825  44.2588 14.76397958207683
FENGYUN 1C
1 25730U 99025A   03059.22115396 -.00000037  00000-0  25639-5 0  7773
2 25730  98.6341  83.2591 0014129 338.9693  21.0895 14.11734591195990
ASTRA 1H
1 25785U 99033A   03057.00000000  .00000104  00000-0  10000-3 0  3731
2 25785   0.0122 319.8851 0002995  65.1991 149.5614  1.00273184 13577
TERRA
1 25994U 99068A   03059.26966717  .00000327  00000-0  82540-4 0  7388
2 25994  98.1943 135.3381 0000897  78.9953 281.1346 14.57140128170088
JAWSAT
1 26061U 00004A   03058.55583121  .00000365  00000-0  13994-3 0  7750
2 26061 100.2030 117.2899 0034774 253.6770 106.0587 14.37834210161823
OPAL
1 26063U 00004C   032 26063 100.2064 115.4925 0036729 260.0355  99.6675 14.35484687161760
ASUSAT
1 26065U 00004E   03059.54885155  .00000071  00000-0  44930-4 0  7441
2 26065 100.2101 116.0904 0036918 259.5521 100.1497 14.35512568161812
GOES 11
1 26352U 00022A   03059.36730860 -.00000052  00000-0  10000-3 0   434
2 26352   0.1650 102.3672 0003356 206.6311 227.3707  1.00266098 10336
EUTELSAT W4
1 26369U 00028A   03056.75615172  .00000140  00000-0  00000+0 0  3554
2 26369   0.0374  10.0316 0003506 335.6383 117.8134  1.00274569 10121
FENGYUN 2B
1 26382U 00032A   03058.23084955 -.00000348  00000-0  00000+0 0  8026
2 26382   0.5412 287.4213 0001691 201.9374 214.8479  1.00270913  9798
EUTELSAT W1
1 26487U 00052A   03058.07863427  .00000049  00000-0  10000-3 0  3606
2 26487   0.0117 237.1097 0004020  87.6348 229.9765  1.00272161  9109
ASTRA 2B
1 26494U 00054A   03057.00000000  .00000134  00000-0  00000+0 0  2562
2 26494   0.0178 354.5658 0005000 302.8402 246.1704  1.00276704  8990
NOAA 16
1 26536U 00055A   03058.86526750 -.00000091  00000-0 -25582-4 0  2257
2 26536  98.9027   7.0806 0009845 283.5746  76.4316 14.11908009125469
SAUDISAT 1A
1 26545U 00057A   03058.87694817 +.00000530 +00000-0 +89568-4 0 04207
2 26545 064.5600 003.3132 0051403 237.3870 122.2258 14.79000903130605
UNISAT
1 26547U 00057C   03058.85847421 +.00000968 +00000-0 +14392-3 0 04395
2 26547 064.5591 005.5680 0058603 239.2536 120.2799 14.79779401130566
TIUNGSAT 1
1 26548U 00057D   03059.29013396  .00000768  00000-0  11524-3 0  4214
2 26548  64.558SAUDISAT 1B
1 26549U 00057E   03058.91972262  .00000480  00000-0  84643-4 0  7036
2 26549  64.5539   7.3451 0055967 237.2066 122.3640 14.77937556130521
AMSAT OSCAR 40
1 26609U 00072B   03058.16686962 -.00000267  00000-0  10000-3 0  3121
2 26609   8.1401  62.4789 7944119 148.1042 305.2468  1.25596203 10697
GOES 12
1 26871U 01031A   03059.57649229 -.00000204  00000-0  10000-3 0  8439
2 26871   0.3031 276.6038 0002337  24.0593 333.5659  1.00359880  5938
PCSAT
1 26931U 01043C   03058.97305784 +.00000074 +00000-0 +61665-4 0 04295
2 26931 067.0472 231.4029 0005129 268.6778 091.3737 14.29119052073690
SAPPHIRE
1 26932U 01043D   03059.15985973  .00000017  00000-0  39305-4 0  4070
2 26932  67.0538 230.6248 0004621 242.9855 117.0775 14.29296881 73745
ENVISAT
1 27386U 02009A   03059.53508348  .00000031  00000-0  27826-2 27386  98.5482 127.9385 0000992  90.3089 269.8210 14.32248803 52176
IDEFIX/ARIANE 42P
1 27422U 02021B   03059.20190728  .00000100  00000-0  57992-4 0  2437
2 27422  98.6939 138.3589 0013337 119.9402 240.3107 14.27973859 42832
FENGYUN 1D
1 27431U 02024B   03058.96701745 +.00000005 +00000-0 +27592-4 0 02469
2 27431 098.7686 107.6965 0016182 097.3865 262.9146 14.09179067040696
NOAA 17
1 27453U 02032A   03058.91539101  .00000164  00000-0  91925-4 0  3202
2 27453  98.7541 130.0769 0011179 333.7236  26.3371 14.23298197 35296
HOT BIRD 6
1 27499U 02038A   03054.87288413  .00000075  00000-0  10000-3 0   703
2 27499   0.0150 173.7812 0009015 197.5701 109.1063  1.00270140  1885
